Retour au catalogue

STARLINK-11639

ActifCommunicationsVLEO
NORAD 63189·PAYLOAD·🇺🇸 United States

Lancé Mar 13, 2025 depuis Cape Canaveral Space Force Station

Loading…

Prochains Passages (prochaines 24 heures)

TLE

FraisSource: CelesTrak SupGP

Époque: Sep 15, 2026, 02:51 UTC

1 63189C 25048G   26258.11923611 -.00011514  00000+0 -89395-4 0  2582
2 63189  43.0006 258.0121 0001409 265.4443 116.4651 15.70854159    13

Suivez STARLINK-11639 en temps réel avec AllMySat

Download on the App Store